Wind_Speed
29 29 27 27 30 34 38 37 39 41 43 40 42 43 42 40 38 37 36 34 32 32 32 32 31 31 31 30 30 29 30 30 29 27 25 23 22 23 25 27 28 30 31 32
28 28 27 30 32 34 36 37 38 40 42 43 47 48 46 44 42 41 40 38 36 35 33 31 31 33 33 34 34 34 34 35 34 31 29 27 26 27 28 30 32 33 35 36
26 27 29 31 32 33 34 35 36 38 41 43 47 48 47 48 46 45 43 41 40 38 35 32 33 35 35 36 37 37 37 38 37 35 34 32 32 33 32 33 35 36 38 39
23 24 26 29 32 33 34 35 36 38 39 41 45 48 43 46 45 44 43 42 41 40 37 35 35 36 37 38 39 39 39 39 40 39 38 36 37 37 38 39 41 42 43 44
20 22 25 27 29 32 34 36 37 38 40 42 45 47 42 45 45 40 39 40 40 40 39 38 37 37 39 40 41 42 42 42 42 42 40 40 41 41 42 44 46 48 49 50
21 22 23 25 27 30 31 34 36 38 40 44 43 44 43 38 43 38 37 38 38 39 40 40 39 40 41 42 44 45 44 44 44 44 43 43 44 44 47 49 50 52 52 53
22 23 23 24 26 28 29 30 32 34 36 38 36 41 40 38 39 37 36 36 35 36 36 37 38 39 41 43 44 45 45 45 45 44 44 44 46 47 49 51 52 54 54 53
27 26 25 25 26 28 30 30 31 32 28 27 29 35 32 35 35 33 32 32 32 31 32 33 35 36 37 39 41 42 42 43 43 43 44 45 47 48 50 52 52 52 51 51
29 28 26 25 26 28 29 30 31 33 34 35 33 32 33 34 32 30 29 29 30 30 31 31 32 32 32 34 36 38 39 41 41 43 44 45 46 48 49 50 50 50 50 52
31 30 27 26 28 29 28 28 30 32 33 34 33 30 27 25 24 25 26 26 27 27 28 28 28 29 30 32 34 36 38 39 40 41 42 44 45 47 48 50 51 52 53 53
34 32 30 29 29 27 29 29 30 30 30 30 29 25 24 27 27 25 25 25 25 25 26 27 28 29 30 31 33 36 37 38 39 41 43 45 48 50 51 52 52 53 54 53
37 35 33 31 31 30 31 31 30 30 30 30 30 27 27 31 30 28 27 28 28 27 28 29 30 31 32 33 35 36 37 39 41 43 46 48 50 52 53 53 54 54 53 53
39 38 35 32 32 34 35 35 35 35 34 32 31 28 29 31 30 30 30 31 31 31 31 32 34 35 36 37 38 40 41 42 45 47 48 50 53 53 53 54 54 53 52 51
41 41 39 33 31 37 37 37 38 39 37 35 34 32 32 35 36 35 34 33 33 33 34 35 36 38 39 40 41 43 45 47 49 51 51 52 52 52 53 53 52 51 51 51
42 42 42 42 42 42 40 39 40 40 41 42 40 40 39 40 40 38 37 36 36 36 37 39 41 42 43 45 47 48 49 51 51 52 51 50 51 53 53 52 51 50 50 51
41 42 42 43 43 44 43 42 43 43 43 44 44 44 45 45 42 42 42 42 42 42 44 45 47 48 49 50 51 51 51 51 49 50 50 51 53 53 52 50 48 49 50 50
39 40 42 42 44 43 45 46 45 45 46 48 49 50 49 49 49 49 49 49 49 49 50 51 52 51 51 51 51 50 49 48 48 50 52 52 52 51 49 47 48 48 49 49
38 39 40 41 42 43 45 44 42 43 46 48 50 51 52 53 52 52 53 53 53 52 52 51 49 48 48 49 48 48 47 47 49 51 53 53 51 48 46 46 47 47 48 49
35 35 37 38 39 41 43 41 40 41 43 44 46 48 49 49 50 51 50 50 49 48 47 45 44 44 45 45 44 44 45 48 51 54 54 50 46 44 44 45 45 46 47 49
30 32 33 35 36 38 41 39 39 39 41 41 41 43 44 44 45 47 46 46 45 44 43 42 41 40 41 41 41 43 46 50 53 52 48 43 42 42 42 43 44 46 47 49
28 29 31 33 34 37 38 37 37 36 37 37 37 37 38 40 41 42 42 42 42 41 39 38 37 36 37 38 41 45 49 51 49 43 40 39 39 40 41 42 44 45 47 47
25 26 27 29 30 33 34 34 34 34 33 32 32 32 32 33 34 35 36 36 35 34 34 33 32 33 34 38 43 47 46 43 39 36 36 36 37 39 40 42 43 44 45 46
23 24 25 27 29 31 31 32 32 31 29 28 28 28 28 28 28 28 29 29 29 28 28 28 29 30 35 40 43 41 37 33 32 33 34 35 37 39 41 42 43 44 43 41
22 23 25 26 28 30 30 30 30 28 27 25 24 23 24 24 23 23 24 24 24 24 24 26 28 31 36 36 33 30 29 29 29 31 33 35 38 40 41 42 42 41 38 34
22 23 24 25 26 26 27 26 24 23 21 19 18 18 18 18 18 18 18 18 19 21 23 25 28 29 27 24 22 23 24 25 28 31 34 37 39 40 41 40 38 34 30 27
19 19 19 18 19 19 19 18 16 14 12 12 11 11 12 12 12 12 13 14 16 18 19 19 18 17 16 17 18 20 23 26 30 33 35 38 39 40 38 34 30 26 23 22
Wind_Direction
239 242 244 245 242 238 238 238 239 240 248 251 251 253 257 259 261 264 267 270 272 271 271 271 272 272 273 275 277 280 282 283 280 276 274 279 284 291 296 299 299 298 295 293
240 241 240 240 241 241 242 242 241 244 250 250 251 253 257 260 262 264 266 269 272 272 272 270 269 269 270 272 274 277 280 282 280 279 277 282 288 295 297 298 299 299 295 292
243 242 241 242 242 242 243 244 244 245 248 250 253 255 257 261 261 264 266 269 271 272 272 269 267 268 269 270 271 274 278 282 284 285 286 290 294 297 297 299 299 300 298 296
248 249 247 246 246 246 246 246 246 246 247 250 253 255 255 261 262 263 266 269 271 271 271 268 267 268 269 269 271 275 279 283 286 288 290 293 296 298 299 300 300 300 300 300
256 253 252 251 251 250 250 249 249 249 250 251 255 260 260 262 267 268 268 269 269 269 270 269 269 268 268 270 273 276 279 283 286 288 290 293 296 297 298 299 301 301 300 301
261 262 262 260 258 257 257 257 256 255 254 255 257 262 265 266 270 271 270 269 268 268 268 269 269 269 269 272 275 277 279 283 285 287 289 293 294 295 298 300 301 302 301 301
260 262 263 263 262 262 261 260 260 260 260 263 264 263 266 264 270 272 271 270 270 269 270 270 271 271 271 273 276 278 280 282 284 286 289 291 293 296 299 300 301 302 302 302
257 260 264 266 265 265 263 261 259 260 261 264 266 269 269 268 272 273 272 271 270 271 272 273 273 274 274 274 275 277 279 281 283 285 288 290 294 297 299 300 302 304 304 303
256 259 261 262 262 262 263 265 265 264 263 263 261 264 271 277 276 273 271 270 271 272 274 277 277 277 276 276 276 278 280 281 283 286 289 293 297 300 301 302 305 306 306 305
253 255 257 257 260 262 261 262 262 264 267 268 270 273 278 278 277 278 277 275 274 274 275 277 277 278 278 278 278 279 281 282 285 288 292 295 299 301 301 304 306 306 306 305
251 253 254 253 255 259 261 260 262 264 264 265 269 271 268 268 275 279 280 278 277 277 276 276 277 278 279 279 280 282 285 287 289 291 294 297 299 301 303 304 305 305 304 303
249 250 251 252 250 250 253 256 258 261 264 268 270 269 269 272 277 280 280 280 280 280 279 279 279 280 282 283 286 287 289 290 292 293 296 298 301 302 302 302 304 304 304 302
249 249 251 255 257 251 247 250 252 257 260 263 266 272 273 275 280 282 281 281 281 281 281 282 282 284 286 287 288 290 291 293 294 295 298 299 300 301 301 302 303 303 303 302
250 251 249 244 241 251 252 251 252 254 257 262 265 267 268 275 278 279 280 281 282 283 284 285 286 286 287 288 289 290 292 293 295 296 297 298 299 300 300 301 301 302 302 302
250 252 253 253 253 256 258 258 258 258 258 261 264 267 271 270 272 275 278 279 281 282 284 285 285 286 287 289 290 291 292 293 295 294 295 297 298 298 298 298 300 302 303 303
249 252 255 256 258 259 260 261 261 262 264 266 267 269 269 270 274 276 278 279 281 282 283 285 286 287 288 289 289 290 291 293 292 291 292 295 296 295 296 297 300 302 303 304
249 252 254 256 258 260 262 261 262 265 266 267 268 269 272 275 275 276 277 278 279 281 282 284 285 285 286 286 287 288 289 290 288 288 289 290 291 293 296 299 301 303 305 306
250 252 254 257 259 260 261 264 265 265 264 266 267 269 271 272 273 274 275 276 278 279 280 281 281 281 281 282 284 286 285 285 284 286 286 288 291 294 298 301 303 305 307 309
252 253 255 258 261 264 264 266 267 267 266 266 267 269 270 272 273 273 274 275 275 276 277 277 277 278 278 280 282 281 280 280 281 283 284 287 293 298 301 303 306 308 310 311
253 254 257 260 262 266 267 268 269 270 270 270 270 270 270 271 271 272 273 273 274 274 274 275 276 276 277 278 278 276 275 276 277 279 284 291 298 301 304 307 309 311 312 313
254 256 258 261 263 266 269 271 272 272 273 274 272 271 271 270 269 270 270 270 271 272 273 274 274 274 274 273 271 270 270 271 275 283 293 299 303 306 308 310 311 312 313 314
255 256 258 260 263 267 270 271 272 273 274 275 275 274 272 270 269 269 269 269 270 271 271 271 271 270 268 265 262 263 267 274 284 295 301 305 307 309 311 312 313 314 315 316
256 259 262 264 267 270 271 272 273 274 274 273 272 271 271 270 269 269 269 270 270 269 268 267 266 263 261 260 261 266 276 290 299 304 307 309 311 313 314 314 315 316 317 318
263 266 269 271 272 273 274 275 275 275 274 272 270 268 267 267 268 267 268 267 264 263 262 261 260 258 257 260 269 283 295 303 306 310 312 314 315 315 316 316 317 318 319 320
273 275 275 276 276 277 277 277 277 276 273 271 268 266 264 264 265 264 260 259 257 257 254 254 255 258 266 277 292 301 307 311 314 316 317 317 317 317 318 319 320 321 322 323
280 280 280 278 276 275 276 277 277 274 269 265 262 261 256 251 251 254 252 252 254 254 254 256 262 276 293 304 311 316 319 321 321 320 320 320 320 320 322 323 325 327 328 330
Height
5833 5837 5840 5843 5844 5846 5847 5851 5854 5856 5854 5858 5859 5859 5860 5862 5864 5865 5866 5866 5866 5866 5865 5864 5863 5862 5861 5860 5858 5856 5854 5851 5849 5846 5844 5843 5841 5839 5838 5836 5834 5831 5828 5825
5828 5831 5834 5834 5836 5838 5841 5844 5847 5850 5849 5851 5850 5851 5853 5854 5856 5858 5858 5859 5859 5859 5859 5858 5857 5856 5855 5854 5852 5850 5847 5843 5840 5838 5836 5834 5833 5831 5830 5828 5825 5823 5820 5816
5822 5825 5826 5828 5830 5832 5834 5837 5840 5842 5842 5842 5843 5844 5846 5846 5848 5849 5851 5852 5852 5852 5851 5852 5850 5849 5848 5847 5845 5843 5840 5836 5833 5830 5828 5826 5825 5823 5821 5819 5816 5813 5810 5806
5816 5819 5820 5822 5824 5825 5828 5830 5832 5833 5835 5835 5835 5834 5840 5837 5838 5841 5843 5844 5844 5844 5844 5844 5843 5842 5841 5839 5837 5835 5833 5829 5826 5823 5820 5818 5816 5814 5812 5809 5806 5802 5799 5795
5812 5813 5814 5816 5818 5819 5820 5822 5824 5825 5826 5827 5825 5826 5832 5829 5829 5833 5835 5835 5835 5835 5835 5835 5835 5835 5833 5831 5829 5827 5825 5822 5819 5815 5812 5810 5807 5805 5802 5799 5795 5791 5787 5782
5806 5807 5808 5810 5811 5812 5814 5816 5817 5817 5818 5818 5820 5820 5821 5822 5820 5825 5826 5826 5826 5826 5827 5827 5827 5827 5826 5824 5821 5819 5816 5814 5811 5807 5804 5801 5798 5795 5792 5788 5784 5779 5774 5770
5799 5800 5802 5803 5805 5806 5808 5809 5810 5810 5811 5812 5813 5811 5813 5813 5813 5815 5817 5817 5817 5818 5818 5818 5818 5818 5817 5815 5812 5810 5807 5805 5802 5799 5796 5793 5789 5785 5782 5777 5773 5767 5762 5757
5792 5794 5796 5797 5799 5799 5800 5802 5804 5805 5807 5808 5806 5803 5806 5803 5804 5806 5807 5808 5808 5809 5809 5809 5809 5808 5807 5805 5803 5800 5798 5795 5792 5789 5786 5783 5779 5775 5770 5766 5760 5755 5749 5744
5786 5788 5790 5790 5791 5793 5793 5794 5796 5796 5796 5797 5798 5799 5798 5796 5797 5798 5799 5800 5800 5801 5801 5800 5799 5798 5797 5795 5793 5791 5788 5785 5783 5780 5776 5772 5768 5763 5759 5754 5748 5743 5737 5731
5778 5781 5783 5784 5784 5785 5787 5788 5788 5788 5788 5789 5791 5792 5794 5792 5791 5791 5791 5792 5792 5792 5792 5791 5790 5789 5787 5785 5783 5781 5778 5775 5772 5769 5766 5761 5757 5752 5747 5741 5736 5730 5724 5718
5769 5773 5776 5777 5778 5779 5779 5780 5780 5781 5782 5783 5784 5789 5788 5784 5784 5784 5784 5784 5784 5784 5784 5783 5782 5780 5778 5776 5774 5771 5768 5765 5762 5758 5754 5750 5746 5741 5735 5729 5724 5717 5711 5705
5760 5764 5767 5770 5771 5772 5772 5773 5774 5775 5775 5775 5776 5781 5778 5776 5776 5777 5777 5777 5776 5776 5776 5774 5773 5771 5769 5767 5764 5761 5758 5755 5751 5748 5743 5739 5734 5729 5723 5717 5711 5705 5698 5692
5751 5755 5760 5762 5765 5764 5764 5765 5767 5767 5768 5768 5769 5775 5769 5768 5769 5769 5769 5768 5768 5768 5767 5765 5764 5761 5759 5757 5754 5751 5748 5744 5740 5736 5732 5727 5722 5717 5711 5705 5699 5693 5686 5680
5742 5745 5750 5755 5755 5751 5755 5757 5758 5760 5761 5761 5761 5763 5762 5760 5759 5760 5760 5759 5759 5758 5757 5756 5754 5751 5749 5747 5744 5740 5737 5733 5729 5725 5720 5715 5710 5705 5699 5693 5687 5681 5674 5667
5732 5735 5737 5740 5743 5745 5746 5747 5748 5749 5751 5751 5752 5752 5752 5750 5749 5751 5751 5750 5750 5749 5748 5746 5743 5741 5739 5736 5733 5729 5725 5721 5717 5713 5708 5703 5698 5693 5687 5681 5675 5669 5662 5655
5722 5725 5727 5730 5731 5733 5735 5737 5738 5739 5740 5740 5740 5741 5739 5739 5741 5741 5740 5740 5739 5738 5737 5734 5732 5730 5727 5724 5721 5717 5713 5709 5705 5700 5695 5691 5686 5681 5675 5669 5663 5657 5650 5643
5713 5716 5717 5719 5720 5722 5724 5725 5726 5728 5729 5729 5728 5727 5727 5728 5728 5728 5728 5727 5726 5726 5724 5722 5720 5718 5715 5712 5709 5705 5702 5698 5693 5688 5684 5679 5674 5669 5663 5657 5651 5645 5638 5631
5703 5705 5707 5709 5710 5712 5712 5713 5716 5717 5716 5716 5715 5715 5715 5715 5715 5715 5714 5714 5713 5712 5711 5710 5708 5706 5703 5700 5697 5694 5691 5687 5682 5678 5673 5668 5662 5657 5652 5646 5640 5633 5626 5618
5694 5696 5698 5700 5700 5701 5700 5702 5703 5704 5704 5704 5703 5702 5702 5702 5702 5700 5700 5699 5699 5699 5698 5697 5696 5694 5692 5689 5687 5684 5681 5677 5672 5668 5662 5656 5651 5646 5640 5634 5628 5621 5613 5605
5685 5687 5689 5690 5690 5691 5690 5692 5692 5693 5692 5692 5691 5690 5690 5690 5689 5688 5687 5686 5686 5685 5685 5685 5684 5683 5681 5679 5677 5674 5670 5667 5662 5657 5651 5646 5641 5635 5629 5623 5616 5609 5601 5594
5677 5679 5680 5680 5680 5680 5680 5681 5681 5683 5681 5680 5679 5678 5678 5677 5677 5676 5675 5674 5674 5674 5674 5674 5673 5672 5671 5669 5667 5664 5660 5656 5651 5645 5640 5636 5630 5624 5618 5612 5605 5598 5591 5584
5669 5671 5671 5672 5672 5672 5671 5670 5670 5670 5669 5668 5667 5666 5666 5666 5665 5664 5664 5663 5663 5663 5664 5663 5663 5662 5662 5660 5657 5653 5649 5645 5640 5635 5631 5626 5620 5614 5608 5601 5594 5587 5580 5573
5662 5663 5663 5664 5664 5662 5661 5660 5659 5659 5659 5658 5658 5657 5656 5656 5655 5655 5655 5655 5655 5655 5655 5655 5655 5655 5654 5651 5648 5645 5640 5636 5632 5627 5622 5617 5611 5605 5598 5591 5585 5578 5571 5564
5654 5654 5654 5654 5653 5652 5651 5650 5650 5650 5650 5650 5649 5649 5648 5648 5648 5648 5648 5648 5648 5648 5648 5648 5648 5647 5646 5643 5640 5636 5633 5629 5625 5620 5614 5608 5602 5595 5589 5582 5575 5569 5562 5556
5648 5647 5646 5646 5645 5643 5642 5642 5641 5641 5641 5641 5641 5641 5641 5642 5642 5643 5643 5643 5643 5643 5642 5643 5643 5641 5639 5636 5634 5631 5627 5623 5618 5613 5607 5600 5594 5587 5580 5573 5566 5560 5555 5550
5641 5640 5640 5639 5638 5636 5635 5635 5635 5635 5635 5636 5636 5636 5636 5637 5638 5638 5639 5639 5639 5639 5639 5638 5637 5636 5635 5633 5630 5626 5622 5617 5612 5606 5600 5593 5586 5578 5571 5565 5560 5554 5550 5545